{"data":{"norad_id":67102,"intl_designator":"2025-299A","name":"STARLINK-36255","alt_names":[],"object_type":"PAYLOAD","status":"ACTIVE","operator":null,"country":"US","launch_date":"2025-12-15","launch_site_code":"AFETR","launch_vehicle":null,"mission":null,"orbit_class":"UNKNOWN","rcs_meters":null,"size_class":null,"mass_kg":null,"dimensions":null,"purposes":["comms"],"wikipedia_slug":null,"has_3d_model":false,"image_url":null,"decayed_at":null,"tle_current":{"epoch":"2026-09-20T22:00:03.000096Z","epoch_age_seconds":42770,"freshness":"FRESH","line1":"1 67102U 25299A   26263.91670139  .00864313  00000+0  19436-1 0  9996","line2":"2 67102  43.0025 145.8460 0001414 274.0808 341.5421 15.40099359  5504","mean_motion":15.40099359,"eccentricity":0.0001414,"inclination_deg":43.0025,"raan_deg":145.846,"arg_perigee_deg":274.0808,"mean_anomaly_deg":341.5421,"bstar":0.019436,"rev_number":550,"period_min":93.500460966038,"perigee_km":444.85089856987,"apogee_km":446.78071242326,"semimajor_km":6823.9528054966,"source":"CELESTRAK","updated_at":"2026-09-21T09:00:36.103333Z"}}}